Terminal Aerodrome Forecast
Issued by NWS Billings, MT

Home | Current Version | Previous Version | Text Only | Print | Product List | Glossary On
Versions: 1 2 3 4 5 6 7 8 9 10 11 12 13 14 15 16 17 18 19 20 21 22 23 24 25 26 27 28 29 30 31 32 33 34 35 36 37 38 39 40 41 42 43 44 45
000
FTUS45 KBYZ 302049 AAB
TAFMLS
TAF AMD
KMLS 302049Z 3021/0118 30013KT P6SM VCSH SCT040 BKN080
     FM010600 31015G22KT P6SM OVC050
     FM011000 31012G19KT P6SM SCT020 OVC040
     FM011300 31014G22KT P6SM BKN060=

USA.gov is the U.S. government's official web portal to all federal, state and local government web resources and services.